sat.trackr.live / text

‹ back to catalog

HAWK-B

NORAD 43794 · 2018-099AN

PAYLOAD ACTIVE UNKNOWN

§ Identity

Operator
Country
US
Launch date
2018-12-03
Launch site
AFWTR
Launch vehicle
Mass (kg)
RCS (m²)

Purposes: tech_demo

External: N2YO · Heavens-Above · Gunter

§ Orbital elements

Epoch: 2026-09-20T02:13:04.728576Z

Period
94.50 min
Inclination
97.3867°
Eccentricity
0.0030333
Mean motion
15.23780527 rev/d
Perigee alt
473.6 km
Apogee alt
515.3 km
Semi-major
6,872.6 km
B*
1.6021e-4
RAAN
313.3170°
Arg perigee
332.6891°
Mean anomaly
27.2750°
Rev number
42,748

§ Raw data

HAWK-B1 43794U 18099AN  26263.09241584  .00003830  00000+0  16021-3 0  99922 43794  97.3867 313.3170 0030333 332.6891  27.2750 15.23780527427489

JSON: /api/v1/satellites/43794 · /tle

For live sub-satellite position, see the globe view (requires WebGL).

§ Visibility from observer

Set your observer location to see the next 7 days of passes ≥ 10°. The values pass through the URL so the page stays shareable.

No JS? Fill the form by hand. The geolocation button needs JavaScript.